Location: Chuathbaluk
(61.5726°N, 159.2454°W)
Time: 14:53:12
(UTC+00:00)

ZACube-1 - Pass Details

Date: 19 January 2021
Orbit: 583 x 666 km, 97.6° (Epoch: 01 March)

Event Time Altitude Azimuth Distance (km) Brightness Sun altitude
Rises 04:32:42 0° 225° (SW) 2,945 ? -16.0°
Reaches altitude 10° 04:36:07 10° 253° (WSW) 2,059 ? -16.4°
Maximum altitude 04:38:12 13° 281° (W) 1,878 ? -16.6°
Drops below altitude 10° 04:40:18 10° 309° (NW) 2,084 ? -16.9°
Sets 04:43:48 0° 337° (NNW) 3,015 ? -17.3°
